| time (UTC) | temp F | wind direction | speed knots | gust knots | rain 1hr in | rain 24hr in | rain mn in | humidity % | barometer mb |
| 20260507030014 | 42 | 256 | 0.0 | 0.9 | 0.00 | 0.42 | 0.42 | 94 | 1011.2 |
| 20260507024512 | 42 | 261 | 0.0 | 0.9 | 0.00 | 0.42 | 0.42 | 94 | 1011.4 |
| 20260507023012 | 43 | 261 | 0.0 | 0.9 | 0.00 | 0.42 | 0.42 | 94 | 1011.1 |
| 20260507021514 | 43 | 261 | 0.0 | 0.0 | 0.00 | 0.42 | 0.42 | 94 | 1011.7 |
| 20260507020012 | 43 | 261 | 0.0 | 0.0 | 0.00 | 0.42 | 0.42 | 94 | 1011.3 |
| 20260507014520 | 43 | 261 | 0.0 | 0.0 | 0.00 | 0.42 | 0.42 | 93 | 1011.5 |
| 20260507013015 | 43 | 261 | 0.0 | 0.0 | 0.00 | 0.42 | 0.42 | 93 | 1011.4 |
| 20260507011516 | 43 | 261 | 0.0 | 0.0 | 0.00 | 0.42 | 0.42 | 93 | 1011.6 |
| 20260507010028 | 43 | 261 | 0.0 | 0.0 | 0.00 | 0.42 | 0.42 | 93 | 1011.4 |
| 20260507004514 | 43 | 261 | 0.0 | 0.9 | 0.00 | 0.42 | 0.42 | 93 | 1011.3 |
| 20260507003019 | 43 | 261 | 0.0 | 1.7 | 0.00 | 0.42 | 0.42 | 93 | 1011.1 |
| 20260507001519 | 43 | 273 | 0.0 | 0.9 | 0.00 | 0.42 | 0.42 | 93 | 1011.0 |
| 20260507000018 | 44 | 273 | 0.0 | 0.9 | 0.00 | 0.42 | 0.42 | 93 | 1011.0 |
| 20260506234535 | 44 | 273 | 0.0 | 0.0 | 0.00 | 0.42 | 0.42 | 93 | 1010.7 |
| 20260506233019 | 44 | 276 | 0.0 | 0.9 | 0.00 | 0.42 | 0.42 | 93 | 1010.5 |
| 20260506231522 | 44 | 314 | 0.0 | 1.7 | 0.00 | 0.42 | 0.42 | 93 | 1010.5 |
| 20260506230024 | 44 | 21 | 0.0 | 0.9 | 0.00 | 0.42 | 0.42 | 93 | 1010.3 |
| 20260506224527 | 44 | 360 | 0.0 | 2.6 | 0.00 | 0.42 | 0.42 | 93 | 1010.3 |
| 20260506223023 | 44 | 203 | 0.0 | 5.2 | 0.00 | 0.42 | 0.42 | 93 | 1010.0 |
| 20260506221520 | 44 | 352 | 1.7 | 6.1 | 0.00 | 0.43 | 0.42 | 93 | 1009.9 |
| 20260506220033 | 45 | 300 | 1.7 | 3.5 | 0.00 | 0.43 | 0.42 | 93 | 1009.6 |
| 20260506214521 | 45 | 289 | 1.7 | 5.2 | 0.00 | 0.43 | 0.42 | 93 | 1009.7 |
| 20260506213022 | 45 | 288 | 1.7 | 7.8 | 0.00 | 0.43 | 0.42 | 93 | 1009.6 |
| 20260506211524 | 46 | 12 | 0.0 | 3.5 | 0.01 | 0.43 | 0.42 | 94 | 1009.2 |
| 20260506210022 | 46 | 344 | 0.0 | 3.5 | 0.01 | 0.43 | 0.42 | 94 | 1009.0 |
| 20260506204526 | 45 | 11 | 0.0 | 7.8 | 0.02 | 0.43 | 0.42 | 94 | 1008.7 |
| 20260506203026 | 46 | 300 | 0.9 | 7.0 | 0.03 | 0.43 | 0.42 | 94 | 1008.5 |
| 20260506201522 | 46 | 321 | 0.9 | 3.5 | 0.03 | 0.42 | 0.41 | 94 | 1008.0 |
| 20260506200026 | 47 | 9 | 0.0 | 7.0 | 0.03 | 0.42 | 0.41 | 94 | 1008.1 |
| 20260506194531 | 47 | 61 | 0.9 | 5.2 | 0.02 | 0.42 | 0.40 | 94 | 1007.9 |
| 20260506193008 | 47 | 324 | 0.0 | 8.7 | 0.01 | 0.41 | 0.39 | 94 | 1008.0 |
| 20260506191513 | 47 | 271 | 0.9 | 3.5 | 0.00 | 0.40 | 0.38 | 94 | 1007.7 |
| 20260506190015 | 47 | 42 | 0.0 | 6.1 | 0.00 | 0.40 | 0.38 | 94 | 1007.6 |
| 20260506184524 | 47 | 11 | 0.0 | 4.3 | 0.00 | 0.40 | 0.38 | 94 | 1007.4 |
| 20260506183019 | 48 | 337 | 0.9 | 4.3 | 0.00 | 0.40 | 0.38 | 94 | 1007.3 |
| 20260506181507 | 48 | 340 | 0.0 | 3.5 | 0.01 | 0.40 | 0.38 | 93 | 1007.1 |
| 20260506180015 | 50 | 360 | 0.9 | 4.3 | 0.01 | 0.40 | 0.38 | 93 | 1006.8 |
| 20260506174516 | 52 | 299 | 0.0 | 2.6 | 0.02 | 0.40 | 0.38 | 93 | 1006.5 |
| 20260506173024 | 54 | 283 | 0.0 | 7.0 | 0.02 | 0.40 | 0.38 | 94 | 1006.4 |
| 20260506171525 | 56 | 257 | 0.0 | 2.6 | 0.01 | 0.39 | 0.37 | 94 | 1006.3 |
| 20260506170009 | 56 | 193 | 0.0 | 1.7 | 0.02 | 0.39 | 0.37 | 94 | 1006.4 |
| 20260506164517 | 56 | 98 | 0.0 | 1.7 | 0.01 | 0.38 | 0.36 | 94 | 1006.5 |
| 20260506163022 | 56 | 265 | 0.0 | 1.7 | 0.02 | 0.38 | 0.36 | 94 | 1006.4 |
| 20260506161506 | 55 | 115 | 0.0 | 2.6 | 0.03 | 0.38 | 0.36 | 94 | 1006.3 |
| 20260506160007 | 55 | 81 | 0.0 | 1.7 | 0.04 | 0.37 | 0.35 | 94 | 1006.6 |
| 20260506154517 | 55 | 173 | 0.0 | 0.9 | 0.05 | 0.37 | 0.35 | 94 | 1006.6 |
| 20260506153019 | 55 | 168 | 0.0 | 2.6 | 0.06 | 0.36 | 0.34 | 94 | 1006.6 |
| 20260506151524 | 55 | 200 | 0.9 | 3.5 | 0.06 | 0.35 | 0.33 | 94 | 1006.8 |
| 20260506150006 | 55 | 157 | 0.0 | 2.6 | 0.05 | 0.33 | 0.31 | 94 | 1006.6 |
| 20260506144512 | 55 | 125 | 0.0 | 1.7 | 0.06 | 0.32 | 0.30 | 94 | 1006.4 |
| 20260506143015 | 55 | 132 | 0.0 | 2.6 | 0.06 | 0.30 | 0.28 | 94 | 1006.5 |
| 20260506141520 | 55 | 144 | 0.0 | 0.9 | 0.08 | 0.29 | 0.27 | 94 | 1006.6 |
| 20260506140024 | 54 | 134 | 0.0 | 0.9 | 0.10 | 0.28 | 0.26 | 94 | 1006.7 |
| 20260506134505 | 54 | 189 | 0.0 | 0.0 | 0.13 | 0.26 | 0.24 | 94 | 1006.9 |
| 20260506133015 | 54 | 207 | 0.0 | 1.7 | 0.13 | 0.24 | 0.22 | 94 | 1007.2 |
| 20260506131537 | 54 | 134 | 0.0 | 0.9 | 0.12 | 0.21 | 0.19 | 94 | 1007.4 |
| 20260506130033 | 54 | 188 | 0.0 | 2.6 | 0.10 | 0.18 | 0.16 | 94 | 1007.6 |
| 20260506124523 | 54 | 163 | 0.0 | 1.7 | 0.06 | 0.13 | 0.11 | 94 | 1007.6 |
| 20260506123010 | 53 | 142 | 0.9 | 3.5 | 0.04 | 0.11 | 0.09 | 94 | 1007.2 |
| 20260506121515 | 53 | 74 | 0.0 | 0.9 | 0.03 | 0.09 | 0.07 | 94 | 1007.1 |
| 20260506120021 | 53 | 348 | 0.0 | 0.9 | 0.02 | 0.08 | 0.06 | 94 | 1007.0 |
| 20260506114523 | 52 | 20 | 0.0 | 0.0 | 0.01 | 0.07 | 0.05 | 94 | 1007.5 |
| 20260506113024 | 51 | 20 | 0.0 | 0.0 | 0.02 | 0.08 | 0.05 | 94 | 1007.5 |
| 20260506111526 | 51 | 20 | 0.0 | 0.0 | 0.02 | 0.07 | 0.04 | 94 | 1007.6 |
| 20260506110017 | 50 | 20 | 0.0 | 0.9 | 0.02 | 0.07 | 0.04 | 93 | 1007.5 |
| 20260506104519 | 50 | 20 | 0.0 | 0.0 | 0.02 | 0.07 | 0.04 | 93 | 1007.6 |
| 20260506103032 | 50 | 20 | 0.0 | 0.0 | 0.01 | 0.06 | 0.03 | 93 | 1007.6 |
| 20260506101528 | 50 | 20 | 0.0 | 0.0 | 0.00 | 0.05 | 0.02 | 93 | 1007.2 |
| 20260506100034 | 50 | 20 | 0.0 | 0.0 | 0.01 | 0.05 | 0.02 | 92 | 1007.0 |
| 20260506094526 | 50 | 20 | 0.0 | 0.0 | 0.01 | 0.05 | 0.02 | 92 | 1007.0 |
| 20260506093023 | 50 | 20 | 0.0 | 0.0 | 0.02 | 0.05 | 0.02 | 91 | 1007.1 |
| 20260506091528 | 50 | 44 | 0.0 | 0.9 | 0.02 | 0.05 | 0.02 | 91 | 1007.3 |
| 20260506090027 | 50 | 52 | 0.0 | 0.0 | 0.01 | 0.04 | 0.01 | 89 | 1007.5 |
| 20260506084530 | 51 | 52 | 0.0 | 0.0 | 0.01 | 0.04 | 0.01 | 88 | 1007.7 |
| 20260506083022 | 51 | 55 | 0.0 | 0.9 | 0.00 | 0.03 | 0.00 | 87 | 1007.7 |
| 20260506081530 | 51 | 5 | 0.0 | 0.0 | 0.00 | 0.03 | 0.00 | 87 | 1007.7 |
| 20260506073018 | 51 | 321 | 0.0 | 1.7 | 0.00 | 0.03 | 0.00 | 86 | 1007.7 |
| 20260506071524 | 51 | 346 | 0.0 | 0.9 | 0.00 | 0.03 | 0.00 | 87 | 1007.7 |
| 20260506061522 | 51 | 26 | 0.0 | 2.6 | 0.00 | 0.03 | 0.00 | 86 | 1008.2 |
| 20260506044525 | 51 | 360 | 0.0 | 1.7 | 0.00 | 0.03 | 0.00 | 88 | 1009.4 |
| 20260506043008 | 51 | 316 | 0.0 | 0.9 | 0.00 | 0.03 | 0.00 | 87 | 1009.4 |
| 20260506041517 | 52 | 42 | 0.0 | 2.6 | 0.00 | 0.03 | 0.00 | 86 | 1009.4 |
| 20260506040019 | 52 | 54 | 0.0 | 2.6 | 0.00 | 0.03 | 0.00 | 86 | 1009.6 |
| 20260506034524 | 52 | 330 | 0.0 | 0.9 | 0.00 | 0.03 | 0.03 | 86 | 1009.9 |
| 20260506033025 | 53 | 308 | 0.0 | 1.7 | 0.00 | 0.03 | 0.03 | 86 | 1010.1 |
| 20260506031512 | 53 | 285 | 0.0 | 3.5 | 0.00 | 0.03 | 0.03 | 85 | 1009.7 |